SCP
0 -0 -0 -0 -0 -0 -0 -0 -0 -0 -0 -0 -0 -0 -0 -0 -0 -0 -0 -0 -0 -0 -0 -0 -0 -0 0
0 0 -0 -0 -0 -0 -0 -0 -0 -0 -0 -0 0 -0 -0 -0 -0 -0 -0 -0 -0 -0 -0 -0 -0 -0 0
0 0 0 -0 -0 -0 -0 -0 -0 0 0 0 0 0 -0 -0 -0 -0 0 0 0 0 -0 -0 0 0 0
0 0 0 0 0 0 0 0 0 0 0 0 0 0 -0 -0 0 0 0 0 0 0 0 0 0 0 0
0 0 0 0 0 0 0 0 0 0 0 0 -0 -0 0 0 0 0 0 0 0 0 0 0 0 0 0
0 0 -0 0 0 0 0 0 0 0 0 0 0 0 0 0 0 0 0 0 0 0 0 0 0 0 0
0 0 -0 -0 0 0 0 0 0 0 0 0 0 0 0 0 0 0 0 0 0 0 0 0 0 0 0
0 0 0 0 -0 0 0 0 0 0 0 0 0 0 0 0 0 0 0 0 0 0 0 0 0 0 0
0 0 0 0 0 0 0 0 0 0 0 0 0 0 0 0 0 0 0 0 0 0 0 0 0 0 0
0 0 0 0 0 0 0 0 0 0 0 0 0 0 0 0 0 0 0 0 0 0 0 0 0 0 0
0 0 0 0 0 0 0 0 0 0 0 0 0 0 0 0 0 0 0 0 0 0 0 0 0 0 0
0 0 0 0 0 0 0 0 0 0 0 0 0 0 0 0 0 0 0 0 0 0 0 0 0 0 0
0 0 0 0 0 0 0 0 0 0 0 0 0 0 0 0 0 0 0 0 0 0 0 0 0 0 0
0 0 0 0 0 0 0 0 0 0 0 0 0 0 0 0 0 0 0 0 0 0 0 0 0 0 0
0 0 0 0 0 0 0 0 0 0 0 0 0 0 0 0 0 0 0 0 0 0 0 0 0 0 0
0 0 0 0 0 0 0 0 0 0 0 0 0 0 0 0 0 0 0 0 0 0 0 0 0 0 0
Wind_Speed_500mb
28 33 31 25 18 19 16 16 18 20 23 25 24 25 28 29 31 32 33 35 34 31 28 27 27 21 23
27 28 28 28 21 15 18 19 19 18 19 22 22 24 26 27 28 27 29 30 29 26 23 22 22 18 18
25 26 28 28 24 18 19 19 20 19 19 20 21 23 23 23 23 21 20 19 19 19 21 20 18 14 13
28 26 25 27 23 21 19 17 21 19 18 18 18 20 19 18 18 15 14 13 16 16 17 14 12 8 10
31 31 28 27 26 24 20 17 20 19 17 15 14 15 14 12 11 12 11 11 13 12 12 11 9 6 7
26 29 31 30 29 28 24 19 17 18 16 15 14 12 10 9 7 8 8 6 7 10 11 10 8 6 7
28 30 32 33 29 26 24 20 19 18 15 12 11 9 6 5 4 2 4 5 8 13 12 12 12 10 10
32 30 30 30 30 29 24 21 18 15 15 13 12 10 8 9 4 2 4 4 7 5 8 8 11 11 13
36 36 35 33 33 30 27 28 25 21 20 18 17 15 15 11 10 10 6 1 2 2 8 7 8 11 12
45 42 42 39 37 34 32 31 28 25 23 21 20 18 19 13 16 16 8 1 3 3 8 10 12 14 16
52 46 45 44 43 38 36 33 31 31 29 26 25 24 22 21 21 15 11 7 8 7 10 9 15 20 21
59 49 48 49 46 43 43 39 37 36 34 31 31 31 30 29 26 22 12 10 11 8 8 9 11 19 21
72 64 59 60 54 51 50 46 43 41 39 37 34 31 30 31 28 22 21 15 17 12 9 17 14 16 20
74 70 65 61 57 53 51 50 47 43 36 36 35 33 27 22 25 22 23 22 22 18 16 22 20 20 26
71 72 69 63 62 60 60 59 55 50 43 41 38 36 35 35 29 31 28 29 29 25 26 25 18 21 35
70 74 75 75 76 72 67 64 60 58 53 49 45 42 42 43 41 39 31 35 37 36 36 38 41 27 26
Wind_Direction_500mb
136 148 148 147 144 117 115 118 119 112 109 103 99 97 95 91 90 91 92 91 88 85 83 80 73 62 57
152 155 158 155 146 141 127 123 119 115 108 109 105 99 96 95 94 96 95 93 89 83 75 73 75 46 41
169 163 166 162 158 146 138 132 124 121 121 120 114 107 103 101 101 101 100 97 89 83 73 71 78 54 37
187 183 173 175 171 163 157 150 135 133 130 128 120 113 110 108 105 99 93 87 81 69 60 70 74 60 47
199 191 184 181 178 176 175 165 152 147 142 136 130 127 126 121 115 110 103 88 77 69 57 56 65 4 358
200 198 192 191 184 184 188 178 170 170 168 166 152 151 147 144 137 121 107 96 74 41 25 31 23 13 352
213 198 195 197 195 193 193 186 185 189 189 186 168 170 162 162 149 128 103 63 31 42 20 20 359 323 318
216 212 204 205 205 204 200 198 199 195 204 200 200 207 201 213 201 209 122 87 65 7 2 358 327 315 314
218 222 219 213 210 210 209 206 210 205 210 208 211 214 226 213 215 197 200 298 90 256 291 284 282 279 306
221 221 223 222 221 215 215 215 217 220 221 225 227 229 231 228 217 211 211 158 326 273 249 265 238 243 290
221 223 223 226 227 227 226 226 226 231 231 231 237 244 229 236 222 217 213 229 268 261 280 243 200 263 271
221 229 224 226 228 229 232 233 231 232 236 236 241 242 231 230 229 219 222 232 240 253 273 191 240 258 245
217 223 222 224 225 227 230 232 235 237 239 236 239 236 234 238 232 224 212 222 239 233 206 180 199 246 260
221 225 227 229 231 235 237 237 238 241 241 243 242 242 244 241 222 222 224 231 236 234 236 211 187 204 226
222 223 227 229 233 235 234 237 238 241 242 246 247 240 238 233 237 235 237 245 245 244 250 234 211 224 218
227 226 227 229 230 234 236 238 240 242 243 246 245 242 236 238 240 245 247 245 245 252 253 253 246 242 204
Wind_Speed_850mb
28 33 31 25 18 19 16 16 18 20 23 25 24 25 28 29 31 32 33 35 34 31 28 27 27 21 23
27 28 28 28 21 15 18 19 19 18 19 22 22 24 26 27 28 27 29 30 29 26 23 22 22 18 18
25 26 28 28 24 18 19 19 20 19 19 20 21 23 23 23 23 21 20 19 19 19 21 20 18 14 13
28 26 25 27 23 21 19 17 21 19 18 18 18 20 19 18 18 15 14 13 16 16 17 14 12 8 10
31 31 28 27 26 24 20 17 20 19 17 15 14 15 14 12 11 12 11 11 13 12 12 11 9 6 7
26 29 31 30 29 28 24 19 17 18 16 15 14 12 10 9 7 8 8 6 7 10 11 10 8 6 7
28 30 32 33 29 26 24 20 19 18 15 12 11 9 6 5 4 2 4 5 8 13 12 12 12 10 10
32 30 30 30 30 29 24 21 18 15 15 13 12 10 8 9 4 2 4 4 7 5 8 8 11 11 13
36 36 35 33 33 30 27 28 25 21 20 18 17 15 15 11 10 10 6 1 2 2 8 7 8 11 12
45 42 42 39 37 34 32 31 28 25 23 21 20 18 19 13 16 16 8 1 3 3 8 10 12 14 16
52 46 45 44 43 38 36 33 31 31 29 26 25 24 22 21 21 15 11 7 8 7 10 9 15 20 21
59 49 48 49 46 43 43 39 37 36 34 31 31 31 30 29 26 22 12 10 11 8 8 9 11 19 21
72 64 59 60 54 51 50 46 43 41 39 37 34 31 30 31 28 22 21 15 17 12 9 17 14 16 20
74 70 65 61 57 53 51 50 47 43 36 36 35 33 27 22 25 22 23 22 22 18 16 22 20 20 26
71 72 69 63 62 60 60 59 55 50 43 41 38 36 35 35 29 31 28 29 29 25 26 25 18 21 35
70 74 75 75 76 72 67 64 60 58 53 49 45 42 42 43 41 39 31 35 37 36 36 38 41 27 26
Wind_Direction_850mb
136 148 148 147 144 117 115 118 119 112 109 103 99 97 95 91 90 91 92 91 88 85 83 80 73 62 57
152 155 158 155 146 141 127 123 119 115 108 109 105 99 96 95 94 96 95 93 89 83 75 73 75 46 41
169 163 166 162 158 146 138 132 124 121 121 120 114 107 103 101 101 101 100 97 89 83 73 71 78 54 37
187 183 173 175 171 163 157 150 135 133 130 128 120 113 110 108 105 99 93 87 81 69 60 70 74 60 47
199 191 184 181 178 176 175 165 152 147 142 136 130 127 126 121 115 110 103 88 77 69 57 56 65 4 358
200 198 192 191 184 184 188 178 170 170 168 166 152 151 147 144 137 121 107 96 74 41 25 31 23 13 352
213 198 195 197 195 193 193 186 185 189 189 186 168 170 162 162 149 128 103 63 31 42 20 20 359 323 318
216 212 204 205 205 204 200 198 199 195 204 200 200 207 201 213 201 209 122 87 65 7 2 358 327 315 314
218 222 219 213 210 210 209 206 210 205 210 208 211 214 226 213 215 197 200 298 90 256 291 284 282 279 306
221 221 223 222 221 215 215 215 217 220 221 225 227 229 231 228 217 211 211 158 326 273 249 265 238 243 290
221 223 223 226 227 227 226 226 226 231 231 231 237 244 229 236 222 217 213 229 268 261 280 243 200 263 271
221 229 224 226 228 229 232 233 231 232 236 236 241 242 231 230 229 219 222 232 240 253 273 191 240 258 245
217 223 222 224 225 227 230 232 235 237 239 236 239 236 234 238 232 224 212 222 239 233 206 180 199 246 260
221 225 227 229 231 235 237 237 238 241 241 243 242 242 244 241 222 222 224 231 236 234 236 211 187 204 226
222 223 227 229 233 235 234 237 238 241 242 246 247 240 238 233 237 235 237 245 245 244 250 234 211 224 218
227 226 227 229 230 234 236 238 240 242 243 246 245 242 236 238 240 245 247 245 245 252 253 253 246 242 204